Content
SEND FEEDBACK

Daily
Averages
Monthly
Summary
Russia

KRASNOYARSK, RUSSIA


Home > Europe > Russia
Elevation: 909 feet     Latitude: 56 00N     Longitude: 092 53E

WEATHER
 
SELECT A DAY
Number of Records: 161,699;   Date Range: 1/29/98 - 10/24/14
 
SHARE

PRINT THIS DATA

[ ← Previous Day ]
WEATHER ALMANAC - FEBRUARY 13, 2013
[ Next Day → ]
[ °C ]   °F
Weather ElementAverageHighLow
Temperature9.4 °F14 °F (2:00 pm)3.2 °F (4:00 am)
Humidity65.9 %72 % (12:30 am)57 % (6:30 pm)
Barometer30.33 in30.42 in (12:30 am)30.09 in (11:30 pm)
Wind Speed10.6 mph13.4 mph (9:30 am)
Wind Gust24.6 mph (4:00 pm)
Weather ElementAverage
Visibility6 mi
Wind DirectionWSW (240.9 °)

Weather ElementTotal
Precipitation---
Heating Degree Days56.4 (Base 65)
Averaged from 46 records on February 13, 2013
WEATHER CONDITIONS BREAKOUT
WIND DIRECTION BREAKOUT
WEATHER BY HOUR - FEBRUARY 13, 2013
[ °C ]   °F
Local TimeTemperatureDewpointHumidityBarometerVisibilityWind DirectionWind SpeedGust SpeedPrecipitationEventsConditions
12:30 AM6.8 °F-0.4 °F72 %30.42 in6.2 miWest (270°)11.2 mph17.9 mphSnowLight Snow
1:00 AM5.0 °F-2.2 °F72 %30.42 in6.2 miWest (260°)8.9 mph15.7 mphSnowLight Snow
1:30 AM5.0 °F-2.2 °F72 %30.42 in6.2 miWest (270°)11.2 mphOvercast
2:00 AM5.0 °F-2.2 °F72 %30.42 in6.2 miWest (260°)8.9 mphSnowLight Snow
2:30 AM5.0 °F-2.2 °F72 %30.42 in6.2 miWest (260°)11.2 mphSnowLight Snow
3:00 AM5.0 °F-2.2 °F72 %30.42 in6.2 miWest (260°)8.9 mphSnowLight Snow
3:30 AM5.0 °F-2.2 °F72 %30.42 in6.2 miWSW (250°)6.7 mphSnowLight Snow
4:00 AM3.2 °F-4.0 °F72 %30.42 in6.2 miWest (260°)8.9 mphOvercast
4:30 AM3.2 °F-4.0 °F72 %30.42 in6.2 miWSW (250°)8.9 mphOvercast
5:00 AM5.0 °F-2.2 °F72 %30.42 in5.6 miWest (260°)8.9 mphSnowLight Snow
5:30 AM3.2 °F-4.0 °F72 %30.42 in6.2 miWest (270°)8.9 mph15.7 mphSnowLight Snow
6:00 AM3.2 °F-4.0 °F72 %30.42 in6.2 miWest (260°)6.7 mphSnowLight Snow
7:00 AM5.0 °F-4.0 °F66 %30.39 in5.0 miWest (260°)8.9 mphSnowLight Snow
7:30 AM5.0 °F-2.2 °F72 %30.39 in6.2 miWest (260°)8.9 mph15.7 mphOvercast
8:00 AM5.0 °F-2.2 °F72 %30.39 in5.6 miWSW (250°)6.7 mph13.4 mphSnowLight Snow
8:30 AM6.8 °F-2.2 °F67 %30.39 in5.6 miWSW (250°)8.9 mph17.9 mphSnowLight Snow
9:00 AM6.8 °F-2.2 °F67 %30.39 in5.0 miWSW (250°)11.2 mphSnowLight Snow
9:30 AM6.8 °F-2.2 °F67 %30.39 in5.0 miWSW (250°)13.4 mph20.1 mphSnowLight Snow
10:00 AM6.8 °F-2.2 °F67 %30.39 in4.3 miWSW (250°)11.2 mph20.1 mphSnowLight Snow
10:30 AM6.8 °F-0.4 °F72 %30.39 in5.6 miWest (260°)8.9 mph17.9 mphSnowLight Snow
11:00 AM8.6 °F-0.4 °F67 %30.39 in6.2 miWSW (250°)11.2 mphSnowLight Snow Showers
11:30 AM8.6 °F-0.4 °F67 %30.39 in6.2 miWSW (250°)13.4 mph20.1 mphSnowLight Snow Showers
12:00 PM10.4 °F1.4 °F67 %30.36 in6.2 miWSW (240°)13.4 mph20.1 mphSnowLight Snow Showers
12:30 PM10.4 °F1.4 °F67 %30.36 in6.2 miWSW (250°)11.2 mph20.1 mphSnowLight Snow Showers
1:00 PM12.2 °F1.4 °F62 %30.36 in6.2 miWSW (240°)13.4 mph20.1 mphOvercast
1:30 PM12.2 °F3.2 °F67 %30.36 in6.2 miWSW (250°)13.4 mph22.4 mphOvercast
2:00 PM14.0 °F3.2 °F62 %30.33 in6.2 miWSW (240°)13.4 mph22.4 mphSnowLight Snow Showers
2:30 PM14.0 °F3.2 °F62 %30.33 in6.2 miWSW (240°)11.2 mph17.9 mphSnowLight Snow Showers
3:00 PM14.0 °F3.2 °F62 %30.33 in6.2 miWSW (240°)11.2 mph20.1 mphSnowLight Snow Showers
3:30 PM14.0 °F5.0 °F67 %30.30 inWSW (240°)13.4 mph20.1 mphSnowLight Snow Showers
4:00 PM14.0 °F3.2 °F62 %30.30 in6.2 miWSW (240°)13.4 mph24.6 mphSnowLight Snow Showers
4:30 PM14.0 °F3.2 °F62 %30.30 in5.6 miWest (260°)13.4 mph22.4 mphSnowLight Snow Showers
5:00 PM14.0 °F3.2 °F62 %30.27 in6.2 miSW (230°)11.2 mph20.1 mphOvercast
5:30 PM14.0 °F3.2 °F62 %30.27 in6.2 miSW (230°)11.2 mph17.9 mphOvercast
6:00 PM14.0 °F3.2 °F62 %30.27 in6.2 miSW (220°)11.2 mph20.1 mphOvercast
6:30 PM14.0 °F1.4 °F57 %30.24 in6.2 miSouth (190°)6.7 mph13.4 mphOvercast
7:00 PM12.2 °F1.4 °F62 %30.24 in6.2 miSSW (200°)8.9 mph15.7 mphMostly Cloudy
7:30 PM12.2 °F1.4 °F62 %30.24 in6.2 miSSW (210°)8.9 mphMostly Cloudy
8:00 PM12.2 °F1.4 °F62 %30.21 in6.2 miSSW (210°)8.9 mph15.7 mphMostly Cloudy
8:30 PM12.2 °F1.4 °F62 %30.21 in6.2 miSSW (210°)11.2 mphMostly Cloudy
9:00 PM14.0 °F1.4 °F57 %30.18 in6.2 miSSW (210°)8.9 mph15.7 mphMostly Cloudy
9:30 PM14.0 °F1.4 °F57 %30.18 in6.2 miSW (220°)11.2 mph20.1 mphMostly Cloudy
10:00 PM14.0 °F1.4 °F57 %30.15 in6.2 miSW (220°)11.2 mph22.4 mphMostly Cloudy
10:30 PM12.2 °F1.4 °F62 %30.15 in6.2 miSSW (210°)13.4 mph20.1 mphMostly Cloudy
11:00 PM12.2 °F1.4 °F62 %30.12 in6.2 miSSW (210°)13.4 mph22.4 mphMostly Cloudy
11:30 PM12.2 °F-0.4 °F57 %30.09 in6.2 miSSW (210°)13.4 mph22.4 mphMostly Cloudy
Hourly data recorded from UNKL, located miles away from Krasnoyarsk, Russia







STORIES FROM OUR PARTNERS